Location: Recife
(8.0585°S, 34.8848°W)
Time: 06:37:20
(UTC-03:00)

Courier 1B - Pass Details

Date: 20 April 2026
Orbit: 962 x 1209 km, 28.3° (Epoch: 13 May)

Event Time Altitude Azimuth Distance (km) Brightness Sun altitude
Rises 12:20:00 0° 236° (WSW) 4,086 10.8 65.0°
Reaches altitude 10° 12:22:56 10° 233° (SW) 3,100 10.3 64.6°
Maximum altitude 12:30:33 63° 153° (SSE) 1,260 8.8 63.3°
Drops below altitude 10° 12:37:42 10° 73° (ENE) 2,925 10.0 62.1°
Sets 12:40:24 0° 70° (ENE) 3,843 10.5 61.6°
